| time (UTC) | temp F | wind direction | speed knots | gust knots | rain 1hr in | rain 24hr in | rain mn in | humidity % | barometer mb |
| 20260901133525 | 57 | 192 | 1.7 | 6.1 | 0.00 | 0.00 | 0.00 | 80 | 1014.4 |
| 20260901133003 | 57 | 191 | 1.7 | 6.1 | 0.00 | 0.00 | 0.00 | 80 | 1014.4 |
| 20260901132503 | 57 | 193 | 1.7 | 5.2 | 0.00 | 0.00 | 0.00 | 80 | 1014.4 |
| 20260901132003 | 57 | 180 | 1.7 | 5.2 | 0.00 | 0.00 | 0.00 | 80 | 1014.4 |
| 20260901131503 | 57 | 173 | 1.7 | 5.2 | 0.00 | 0.00 | 0.00 | 80 | 1014.4 |
| 20260901131003 | 57 | 189 | 1.7 | 6.1 | 0.00 | 0.00 | 0.00 | 80 | 1014.4 |
| 20260901130503 | 57 | 188 | 1.7 | 6.1 | 0.00 | 0.00 | 0.00 | 80 | 1014.4 |
| 20260901130024 | 57 | 187 | 1.7 | 4.3 | 0.00 | 0.00 | 0.00 | 80 | 1014.4 |
| 20260901125524 | 57 | 186 | 2.6 | 6.1 | 0.00 | 0.00 | 0.00 | 80 | 1014.4 |
| 20260901125003 | 57 | 189 | 1.7 | 5.2 | 0.00 | 0.00 | 0.00 | 80 | 1014.4 |
| 20260901124504 | 57 | 190 | 1.7 | 4.3 | 0.00 | 0.00 | 0.00 | 80 | 1014.4 |
| 20260901124003 | 57 | 196 | 1.7 | 6.1 | 0.00 | 0.00 | 0.00 | 80 | 1014.4 |
| 20260901123503 | 57 | 203 | 1.7 | 6.1 | 0.00 | 0.00 | 0.00 | 80 | 1014.4 |
| 20260901123003 | 57 | 191 | 1.7 | 5.2 | 0.00 | 0.00 | 0.00 | 80 | 1014.4 |
| 20260901122524 | 57 | 185 | 1.7 | 6.1 | 0.00 | 0.00 | 0.00 | 80 | 1014.4 |
| 20260901122003 | 57 | 193 | 1.7 | 6.1 | 0.00 | 0.00 | 0.00 | 80 | 1014.4 |
| 20260901121524 | 57 | 194 | 1.7 | 5.2 | 0.00 | 0.00 | 0.00 | 80 | 1014.4 |
| 20260901121003 | 57 | 189 | 1.7 | 4.3 | 0.00 | 0.00 | 0.00 | 80 | 1014.4 |
| 20260901120503 | 57 | 185 | 1.7 | 4.3 | 0.00 | 0.00 | 0.00 | 80 | 1014.4 |
| 20260901120003 | 57 | 200 | 1.7 | 4.3 | 0.00 | 0.00 | 0.00 | 80 | 1014.4 |
| 20260901115503 | 57 | 203 | 1.7 | 4.3 | 0.00 | 0.00 | 0.00 | 80 | 1014.4 |
| 20260901115024 | 57 | 206 | 1.7 | 4.3 | 0.00 | 0.00 | 0.00 | 80 | 1014.4 |
| 20260901114524 | 57 | 203 | 1.7 | 6.1 | 0.00 | 0.00 | 0.00 | 80 | 1014.4 |
| 20260901114001 | 57 | 200 | 1.7 | 6.1 | 0.00 | 0.00 | 0.00 | 80 | 1014.4 |
| 20260901113502 | 57 | 199 | 1.7 | 5.2 | 0.00 | 0.00 | 0.00 | 80 | 1014.4 |
| 20260901113002 | 57 | 199 | 0.9 | 5.2 | 0.00 | 0.00 | 0.00 | 80 | 1014.4 |
| 20260901112523 | 57 | 206 | 1.7 | 5.2 | 0.00 | 0.00 | 0.00 | 81 | 1014.4 |
| 20260901112002 | 57 | 216 | 2.6 | 7.0 | 0.00 | 0.00 | 0.00 | 80 | 1014.4 |
| 20260901111502 | 57 | 213 | 1.7 | 7.0 | 0.00 | 0.00 | 0.00 | 81 | 1014.4 |
| 20260901111002 | 57 | 215 | 1.7 | 5.2 | 0.00 | 0.00 | 0.00 | 81 | 1014.4 |
| 20260901110501 | 57 | 235 | 1.7 | 4.3 | 0.00 | 0.00 | 0.00 | 80 | 1014.4 |
| 20260901110002 | 57 | 240 | 1.7 | 4.3 | 0.00 | 0.00 | 0.00 | 80 | 1014.4 |
| 20260901105502 | 57 | 240 | 1.7 | 5.2 | 0.00 | 0.00 | 0.00 | 80 | 1014.4 |
| 20260901105001 | 57 | 216 | 1.7 | 5.2 | 0.00 | 0.00 | 0.00 | 80 | 1014.4 |
| 20260901104502 | 57 | 207 | 1.7 | 4.3 | 0.00 | 0.00 | 0.00 | 80 | 1014.4 |
| 20260901104001 | 57 | 203 | 1.7 | 4.3 | 0.00 | 0.00 | 0.00 | 80 | 1014.4 |
| 20260901103501 | 57 | 203 | 0.9 | 3.5 | 0.00 | 0.00 | 0.00 | 80 | 1014.4 |
| 20260901103002 | 57 | 221 | 1.7 | 7.0 | 0.00 | 0.00 | 0.00 | 80 | 1014.4 |
| 20260901102501 | 57 | 230 | 1.7 | 7.0 | 0.00 | 0.00 | 0.00 | 79 | 1014.4 |
| 20260901102002 | 57 | 237 | 0.9 | 6.1 | 0.00 | 0.00 | 0.00 | 79 | 1014.4 |
| 20260901101502 | 57 | 239 | 0.9 | 6.1 | 0.00 | 0.00 | 0.00 | 79 | 1014.4 |
| 20260901101002 | 57 | 241 | 0.9 | 2.6 | 0.00 | 0.00 | 0.00 | 79 | 1014.4 |
| 20260901100502 | 57 | 238 | 0.9 | 3.5 | 0.00 | 0.00 | 0.00 | 79 | 1014.4 |
| 20260901100002 | 57 | 228 | 0.9 | 4.3 | 0.00 | 0.00 | 0.00 | 79 | 1014.4 |
| 20260901095501 | 57 | 201 | 0.9 | 4.3 | 0.00 | 0.00 | 0.00 | 79 | 1014.4 |
| 20260901095004 | 57 | 175 | 0.9 | 3.5 | 0.00 | 0.00 | 0.00 | 79 | 1014.4 |
| 20260901094502 | 57 | 174 | 0.9 | 3.5 | 0.00 | 0.00 | 0.00 | 79 | 1014.4 |
| 20260901094001 | 57 | 184 | 0.9 | 5.2 | 0.00 | 0.00 | 0.00 | 79 | 1014.4 |
| 20260901093502 | 57 | 200 | 0.9 | 5.2 | 0.00 | 0.00 | 0.00 | 79 | 1014.4 |
| 20260901093002 | 57 | 198 | 0.9 | 4.3 | 0.00 | 0.00 | 0.00 | 79 | 1014.4 |
| 20260901092502 | 57 | 194 | 0.9 | 4.3 | 0.00 | 0.00 | 0.00 | 79 | 1014.4 |
| 20260901092023 | 57 | 213 | 0.9 | 3.5 | 0.00 | 0.00 | 0.00 | 80 | 1014.4 |
| 20260901091502 | 57 | 233 | 1.7 | 4.3 | 0.00 | 0.00 | 0.00 | 80 | 1014.4 |
| 20260901091002 | 57 | 247 | 2.6 | 5.2 | 0.00 | 0.00 | 0.00 | 80 | 1014.4 |
| 20260901090502 | 57 | 252 | 2.6 | 5.2 | 0.00 | 0.00 | 0.00 | 80 | 1014.4 |
| 20260901090002 | 57 | 253 | 2.6 | 7.8 | 0.00 | 0.00 | 0.00 | 80 | 1014.4 |
| 20260901085502 | 57 | 259 | 1.7 | 7.8 | 0.00 | 0.00 | 0.00 | 80 | 1014.4 |
| 20260901085002 | 57 | 257 | 1.7 | 6.1 | 0.00 | 0.00 | 0.00 | 80 | 1014.4 |
| 20260901084502 | 57 | 251 | 2.6 | 7.0 | 0.00 | 0.00 | 0.00 | 80 | 1014.4 |
| 20260901084023 | 57 | 249 | 1.7 | 7.0 | 0.00 | 0.00 | 0.00 | 80 | 1014.4 |
| 20260901083502 | 57 | 248 | 1.7 | 4.3 | 0.00 | 0.00 | 0.00 | 81 | 1014.4 |
| 20260901083023 | 57 | 252 | 1.7 | 6.1 | 0.00 | 0.00 | 0.00 | 81 | 1014.4 |
| 20260901082502 | 57 | 250 | 1.7 | 6.1 | 0.00 | 0.00 | 0.00 | 81 | 1014.4 |
| 20260901082001 | 57 | 235 | 1.7 | 5.2 | 0.00 | 0.00 | 0.00 | 81 | 1014.4 |
| 20260901081502 | 57 | 237 | 1.7 | 5.2 | 0.00 | 0.00 | 0.00 | 81 | 1014.4 |
| 20260901081023 | 57 | 243 | 1.7 | 4.3 | 0.00 | 0.00 | 0.00 | 81 | 1014.4 |
| 20260901080502 | 57 | 239 | 1.7 | 5.2 | 0.00 | 0.00 | 0.00 | 81 | 1014.4 |
| 20260901080002 | 57 | 241 | 2.6 | 7.8 | 0.00 | 0.00 | 0.00 | 81 | 1014.4 |
| 20260901075502 | 57 | 244 | 1.7 | 7.8 | 0.00 | 0.00 | 0.00 | 81 | 1014.4 |
| 20260901075002 | 57 | 242 | 1.7 | 6.1 | 0.00 | 0.00 | 0.00 | 81 | 1014.4 |
| 20260901074523 | 57 | 246 | 1.7 | 6.1 | 0.00 | 0.00 | 0.00 | 81 | 1014.4 |
| 20260901074002 | 57 | 243 | 1.7 | 7.0 | 0.00 | 0.00 | 0.00 | 81 | 1014.4 |
| 20260901073502 | 57 | 241 | 1.7 | 7.0 | 0.00 | 0.00 | 0.00 | 81 | 1014.4 |
| 20260901073002 | 57 | 250 | 1.7 | 6.1 | 0.00 | 0.00 | 0.00 | 81 | 1014.4 |
| 20260901072502 | 57 | 258 | 1.7 | 6.1 | 0.00 | 0.00 | 0.00 | 81 | 1014.4 |
| 20260901072002 | 57 | 254 | 1.7 | 3.5 | 0.00 | 0.00 | 0.00 | 80 | 1014.4 |
| 20260901071502 | 57 | 254 | 1.7 | 3.5 | 0.00 | 0.00 | 0.00 | 80 | 1014.4 |
| 20260901071002 | 57 | 252 | 1.7 | 6.1 | 0.00 | 0.00 | 0.00 | 80 | 1014.4 |
| 20260901070523 | 57 | 245 | 1.7 | 6.1 | 0.00 | 0.00 | 0.00 | 80 | 1014.4 |
| 20260901070009 | 57 | 246 | 1.7 | 7.0 | 0.00 | 0.00 | 0.00 | 80 | 1014.4 |
| 20260901065523 | 57 | 243 | 2.6 | 7.0 | 0.00 | 0.00 | 0.00 | 80 | 1014.4 |
| 20260901065002 | 57 | 240 | 2.6 | 6.1 | 0.00 | 0.00 | 0.00 | 80 | 1014.4 |
| 20260901064502 | 57 | 246 | 2.6 | 7.8 | 0.00 | 0.00 | 0.00 | 80 | 1014.4 |
| 20260901064002 | 57 | 247 | 2.6 | 7.8 | 0.00 | 0.00 | 0.00 | 80 | 1014.4 |
| 20260901063502 | 57 | 249 | 3.5 | 8.7 | 0.00 | 0.00 | 0.00 | 80 | 1014.4 |
| 20260901063001 | 57 | 248 | 2.6 | 8.7 | 0.00 | 0.00 | 0.00 | 80 | 1014.4 |
| 20260901062502 | 57 | 245 | 2.6 | 7.0 | 0.00 | 0.00 | 0.00 | 80 | 1014.4 |
| 20260901062002 | 57 | 250 | 2.6 | 7.0 | 0.00 | 0.00 | 0.00 | 80 | 1014.4 |
| 20260901061502 | 57 | 256 | 1.7 | 7.0 | 0.00 | 0.00 | 0.00 | 80 | 1014.4 |
| 20260901061002 | 57 | 259 | 1.7 | 7.0 | 0.00 | 0.00 | 0.00 | 81 | 1014.4 |
| 20260901060502 | 57 | 255 | 2.6 | 9.6 | 0.00 | 0.00 | 0.00 | 81 | 1014.4 |
| 20260901060023 | 57 | 253 | 2.6 | 9.6 | 0.00 | 0.00 | 0.00 | 81 | 1014.4 |
| 20260901055502 | 57 | 254 | 1.7 | 7.8 | 0.00 | 0.00 | 0.00 | 82 | 1014.4 |
| 20260901055023 | 57 | 247 | 1.7 | 6.1 | 0.00 | 0.00 | 0.00 | 82 | 1014.4 |
| 20260901054502 | 57 | 255 | 2.6 | 7.8 | 0.00 | 0.00 | 0.00 | 82 | 1014.4 |
| 20260901054023 | 57 | 259 | 2.6 | 7.8 | 0.00 | 0.00 | 0.00 | 82 | 1014.4 |
| 20260901053502 | 57 | 256 | 2.6 | 7.0 | 0.00 | 0.00 | 0.00 | 82 | 1012.5 |
| 20260901053002 | 57 | 257 | 3.5 | 7.8 | 0.00 | 0.00 | 0.00 | 82 | 1012.5 |
| 20260901052502 | 57 | 253 | 2.6 | 7.8 | 0.00 | 0.00 | 0.00 | 82 | 1012.5 |
| 20260901052002 | 57 | 252 | 2.6 | 9.6 | 0.00 | 0.00 | 0.00 | 82 | 1012.5 |
| 20260901051502 | 57 | 256 | 1.7 | 9.6 | 0.00 | 0.00 | 0.00 | 82 | 1012.5 |
| 20260901051002 | 57 | 257 | 2.6 | 9.6 | 0.00 | 0.00 | 0.00 | 82 | 1012.5 |
| 20260901050502 | 57 | 257 | 2.6 | 9.6 | 0.00 | 0.00 | 0.00 | 82 | 1012.5 |
| 20260901050002 | 57 | 252 | 2.6 | 9.6 | 0.00 | 0.00 | 0.00 | 82 | 1012.5 |
| 20260901045502 | 57 | 255 | 2.6 | 7.8 | 0.00 | 0.00 | 0.00 | 82 | 1012.5 |
| 20260901045002 | 57 | 258 | 2.6 | 7.8 | 0.00 | 0.00 | 0.00 | 82 | 1012.5 |
| 20260901044502 | 57 | 254 | 2.6 | 7.8 | 0.00 | 0.00 | 0.00 | 82 | 1012.5 |
| 20260901044002 | 57 | 252 | 2.6 | 7.8 | 0.00 | 0.00 | 0.00 | 82 | 1012.5 |
| 20260901043502 | 57 | 261 | 2.6 | 7.8 | 0.00 | 0.00 | 0.00 | 82 | 1012.5 |
| 20260901043023 | 57 | 259 | 2.6 | 7.0 | 0.00 | 0.00 | 0.00 | 82 | 1012.5 |
| 20260901042502 | 57 | 251 | 2.6 | 8.7 | 0.00 | 0.00 | 0.00 | 82 | 1012.5 |
| 20260901042002 | 57 | 252 | 3.5 | 8.7 | 0.00 | 0.00 | 0.00 | 82 | 1012.5 |
| 20260901041502 | 57 | 247 | 3.5 | 8.7 | 0.00 | 0.00 | 0.00 | 82 | 1012.5 |
| 20260901041002 | 57 | 246 | 3.5 | 11.3 | 0.00 | 0.00 | 0.00 | 82 | 1012.5 |
| 20260901040523 | 57 | 248 | 2.6 | 11.3 | 0.00 | 0.00 | 0.00 | 82 | 1012.5 |
| 20260901040002 | 57 | 257 | 2.6 | 10.4 | 0.00 | 0.00 | 0.00 | 82 | 1012.5 |
| 20260901035523 | 57 | 258 | 2.6 | 10.4 | 0.00 | 0.00 | 0.00 | 82 | 1012.5 |
| 20260901035002 | 57 | 253 | 1.7 | 7.0 | 0.00 | 0.00 | 0.00 | 82 | 1012.5 |
| 20260901034523 | 57 | 260 | 2.6 | 7.8 | 0.00 | 0.00 | 0.00 | 82 | 1012.5 |
| 20260901034002 | 57 | 260 | 3.5 | 8.7 | 0.00 | 0.00 | 0.00 | 82 | 1012.5 |
| 20260901033502 | 57 | 258 | 3.5 | 8.7 | 0.00 | 0.00 | 0.00 | 82 | 1012.5 |
| 20260901033002 | 57 | 267 | 2.6 | 7.8 | 0.00 | 0.00 | 0.00 | 82 | 1012.5 |
| 20260901032502 | 57 | 269 | 1.7 | 8.7 | 0.00 | 0.00 | 0.00 | 82 | 1012.5 |
| 20260901032023 | 57 | 267 | 1.7 | 8.7 | 0.00 | 0.00 | 0.00 | 82 | 1012.5 |
| 20260901031502 | 57 | 273 | 1.7 | 5.2 | 0.00 | 0.00 | 0.00 | 82 | 1012.5 |
| 20260901031002 | 57 | 277 | 1.7 | 5.2 | 0.00 | 0.00 | 0.00 | 82 | 1012.5 |
| 20260901030502 | 57 | 262 | 1.7 | 6.1 | 0.00 | 0.00 | 0.00 | 82 | 1012.5 |
| 20260901030002 | 57 | 252 | 2.6 | 7.8 | 0.00 | 0.00 | 0.00 | 81 | 1012.5 |
| 20260901025502 | 57 | 259 | 2.6 | 7.8 | 0.00 | 0.00 | 0.00 | 81 | 1012.5 |
| 20260901025002 | 58 | 262 | 2.6 | 8.7 | 0.00 | 0.00 | 0.00 | 81 | 1012.5 |
| 20260901024506 | 58 | 259 | 2.6 | 8.7 | 0.00 | 0.00 | 0.00 | 81 | 1012.5 |
| 20260901024023 | 58 | 259 | 2.6 | 7.8 | 0.00 | 0.00 | 0.00 | 81 | 1012.5 |
| 20260901023525 | 58 | 271 | 1.7 | 7.0 | 0.00 | 0.00 | 0.00 | 81 | 1012.5 |
| 20260901023002 | 58 | 271 | 2.6 | 8.7 | 0.00 | 0.00 | 0.00 | 82 | 1012.5 |
| 20260901022502 | 58 | 261 | 3.5 | 9.6 | 0.00 | 0.00 | 0.00 | 81 | 1012.5 |
| 20260901022002 | 59 | 262 | 3.5 | 10.4 | 0.00 | 0.00 | 0.00 | 81 | 1012.5 |
| 20260901021502 | 59 | 271 | 2.6 | 10.4 | 0.00 | 0.00 | 0.00 | 80 | 1012.5 |
| 20260901021002 | 59 | 268 | 2.6 | 8.7 | 0.00 | 0.00 | 0.00 | 80 | 1012.5 |
| 20260901020502 | 59 | 267 | 1.7 | 8.7 | 0.00 | 0.00 | 0.00 | 80 | 1012.5 |
| 20260901020002 | 59 | 265 | 1.7 | 6.1 | 0.00 | 0.00 | 0.00 | 80 | 1012.5 |
| 20260901015502 | 60 | 274 | 1.7 | 7.8 | 0.00 | 0.00 | 0.00 | 80 | 1012.5 |
| 20260901015002 | 60 | 277 | 2.6 | 7.8 | 0.00 | 0.00 | 0.00 | 79 | 1012.5 |
| 20260901014523 | 60 | 261 | 2.6 | 7.8 | 0.00 | 0.00 | 0.00 | 79 | 1012.5 |
| 20260901014002 | 60 | 271 | 2.6 | 7.8 | 0.00 | 0.00 | 0.00 | 79 | 1012.5 |
| 20260901013523 | 60 | 279 | 1.7 | 7.8 | 0.00 | 0.00 | 0.00 | 78 | 1012.5 |
| 20260901013002 | 61 | 269 | 1.7 | 7.0 | 0.00 | 0.00 | 0.00 | 78 | 1012.5 |
| 20260901012523 | 61 | 276 | 1.7 | 7.0 | 0.00 | 0.00 | 0.00 | 77 | 1012.5 |
| 20260901012002 | 61 | 266 | 2.6 | 9.6 | 0.00 | 0.00 | 0.00 | 78 | 1012.5 |
| 20260901011502 | 61 | 260 | 3.5 | 11.3 | 0.00 | 0.00 | 0.00 | 77 | 1012.5 |
| 20260901011023 | 62 | 264 | 3.5 | 11.3 | 0.00 | 0.00 | 0.00 | 76 | 1012.5 |
| 20260901010502 | 62 | 271 | 2.6 | 11.3 | 0.00 | 0.00 | 0.00 | 75 | 1012.5 |
| 20260901010002 | 63 | 277 | 1.7 | 7.0 | 0.00 | 0.00 | 0.00 | 76 | 1012.5 |
| 20260901005523 | 63 | 266 | 2.6 | 9.6 | 0.00 | 0.00 | 0.00 | 76 | 1012.5 |
| 20260901005002 | 63 | 259 | 4.3 | 9.6 | 0.00 | 0.00 | 0.00 | 75 | 1012.5 |
| 20260901004502 | 63 | 273 | 3.5 | 8.7 | 0.00 | 0.00 | 0.00 | 75 | 1012.5 |
| 20260901004003 | 63 | 294 | 2.6 | 8.7 | 0.00 | 0.00 | 0.00 | 75 | 1012.5 |
| 20260901003502 | 63 | 281 | 1.7 | 8.7 | 0.00 | 0.00 | 0.00 | 75 | 1012.5 |
| 20260901003023 | 63 | 279 | 1.7 | 8.7 | 0.00 | 0.00 | 0.00 | 76 | 1012.5 |
| 20260901002502 | 63 | 272 | 2.6 | 10.4 | 0.00 | 0.00 | 0.00 | 75 | 1012.5 |
| 20260901002002 | 63 | 273 | 2.6 | 10.4 | 0.00 | 0.00 | 0.00 | 75 | 1012.5 |
| 20260901001502 | 62 | 299 | 2.6 | 7.0 | 0.00 | 0.00 | 0.00 | 76 | 1012.5 |
| 20260901001023 | 62 | 280 | 3.5 | 9.6 | 0.00 | 0.00 | 0.00 | 75 | 1012.5 |
| 20260901000502 | 62 | 264 | 3.5 | 10.4 | 0.00 | 0.00 | 0.00 | 75 | 1012.5 |
| 20260901000002 | 63 | 275 | 3.5 | 10.4 | 0.00 | 0.00 | 0.00 | 75 | 1012.5 |
| 20260831235502 | 63 | 281 | 2.6 | 9.6 | 0.00 | 0.00 | 0.00 | 75 | 1012.5 |
| 20260831235002 | 63 | 281 | 1.7 | 7.0 | 0.00 | 0.00 | 0.00 | 74 | 1012.5 |
| 20260831234502 | 63 | 276 | 2.6 | 10.4 | 0.00 | 0.00 | 0.00 | 74 | 1012.5 |
| 20260831234023 | 64 | 278 | 3.5 | 13.9 | 0.00 | 0.00 | 0.00 | 74 | 1012.5 |
| 20260831233502 | 64 | 270 | 2.6 | 13.9 | 0.00 | 0.00 | 0.00 | 73 | 1012.5 |
| 20260831233002 | 64 | 257 | 3.5 | 9.6 | 0.00 | 0.00 | 0.00 | 74 | 1012.5 |
| 20260831232523 | 64 | 260 | 3.5 | 9.6 | 0.00 | 0.00 | 0.00 | 74 | 1012.5 |
| 20260831232002 | 64 | 268 | 3.5 | 10.4 | 0.00 | 0.00 | 0.00 | 74 | 1012.5 |
| 20260831231502 | 64 | 271 | 2.6 | 10.4 | 0.00 | 0.00 | 0.00 | 73 | 1012.5 |
| 20260831231002 | 64 | 260 | 2.6 | 8.7 | 0.00 | 0.00 | 0.00 | 73 | 1012.5 |
| 20260831230523 | 64 | 267 | 2.6 | 8.7 | 0.00 | 0.00 | 0.00 | 73 | 1012.5 |
| 20260831230002 | 64 | 298 | 1.7 | 8.7 | 0.00 | 0.00 | 0.00 | 74 | 1012.5 |
| 20260831225523 | 64 | 277 | 2.6 | 9.6 | 0.00 | 0.00 | 0.00 | 73 | 1012.5 |
| 20260831225002 | 64 | 256 | 3.5 | 11.3 | 0.00 | 0.00 | 0.00 | 74 | 1012.5 |
| 20260831224502 | 64 | 265 | 3.5 | 11.3 | 0.00 | 0.00 | 0.00 | 74 | 1012.5 |
| 20260831224002 | 64 | 269 | 3.5 | 11.3 | 0.00 | 0.00 | 0.00 | 73 | 1012.5 |
| 20260831223503 | 64 | 269 | 3.5 | 7.8 | 0.00 | 0.00 | 0.00 | 73 | 1012.5 |
| 20260831223002 | 64 | 268 | 3.5 | 9.6 | 0.00 | 0.00 | 0.00 | 74 | 1012.5 |
| 20260831222502 | 64 | 267 | 3.5 | 12.2 | 0.00 | 0.00 | 0.00 | 74 | 1012.5 |
| 20260831222003 | 64 | 279 | 2.6 | 12.2 | 0.00 | 0.00 | 0.00 | 75 | 1012.5 |
| 20260831221502 | 64 | 268 | 3.5 | 10.4 | 0.00 | 0.00 | 0.00 | 76 | 1012.5 |
| 20260831221002 | 64 | 262 | 2.6 | 10.4 | 0.00 | 0.00 | 0.00 | 76 | 1012.5 |
| 20260831220523 | 64 | 278 | 1.7 | 8.7 | 0.00 | 0.00 | 0.00 | 76 | 1012.5 |
| 20260831220002 | 64 | 264 | 2.6 | 7.8 | 0.00 | 0.00 | 0.00 | 77 | 1012.5 |
| 20260831215523 | 63 | 266 | 2.6 | 7.8 | 0.00 | 0.00 | 0.00 | 77 | 1012.5 |
| 20260831215002 | 63 | 273 | 1.7 | 8.7 | 0.00 | 0.00 | 0.00 | 79 | 1012.5 |
| 20260831214502 | 62 | 264 | 2.6 | 8.7 | 0.00 | 0.00 | 0.00 | 78 | 1012.5 |
| 20260831214002 | 62 | 264 | 2.6 | 8.7 | 0.00 | 0.00 | 0.00 | 80 | 1012.5 |
| 20260831213502 | 61 | 253 | 2.6 | 8.7 | 0.00 | 0.00 | 0.00 | 80 | 1012.5 |
| 20260831213002 | 61 | 257 | 2.6 | 10.4 | 0.00 | 0.00 | 0.00 | 80 | 1012.5 |
| 20260831212502 | 61 | 256 | 3.5 | 10.4 | 0.00 | 0.00 | 0.00 | 80 | 1012.5 |
| 20260831212002 | 61 | 251 | 2.6 | 9.6 | 0.00 | 0.00 | 0.00 | 80 | 1012.5 |
| 20260831211502 | 62 | 262 | 3.5 | 8.7 | 0.00 | 0.00 | 0.00 | 80 | 1012.5 |
| 20260831211002 | 62 | 274 | 2.6 | 8.7 | 0.00 | 0.00 | 0.00 | 80 | 1012.5 |
| 20260831210502 | 62 | 266 | 1.7 | 7.0 | 0.00 | 0.00 | 0.00 | 80 | 1012.5 |
| 20260831210002 | 62 | 270 | 1.7 | 9.6 | 0.00 | 0.00 | 0.00 | 81 | 1012.5 |
| 20260831205502 | 61 | 280 | 2.6 | 9.6 | 0.00 | 0.00 | 0.00 | 81 | 1012.5 |
| 20260831205002 | 61 | 271 | 2.6 | 9.6 | 0.00 | 0.00 | 0.00 | 81 | 1012.5 |
| 20260831204502 | 60 | 264 | 2.6 | 9.6 | 0.00 | 0.00 | 0.00 | 82 | 1012.5 |
| 20260831204002 | 60 | 262 | 2.6 | 8.7 | 0.00 | 0.00 | 0.00 | 82 | 1012.5 |
| 20260831203502 | 60 | 260 | 2.6 | 8.7 | 0.00 | 0.00 | 0.00 | 82 | 1012.5 |
| 20260831203002 | 60 | 256 | 1.7 | 9.6 | 0.00 | 0.00 | 0.00 | 82 | 1012.5 |
| 20260831202502 | 60 | 268 | 2.6 | 9.6 | 0.00 | 0.00 | 0.00 | 83 | 1012.5 |
| 20260831202002 | 60 | 268 | 2.6 | 8.7 | 0.00 | 0.00 | 0.00 | 83 | 1012.5 |
| 20260831201502 | 60 | 251 | 1.7 | 5.2 | 0.00 | 0.00 | 0.00 | 83 | 1012.5 |
| 20260831201002 | 60 | 244 | 2.6 | 7.8 | 0.00 | 0.00 | 0.00 | 84 | 1012.5 |
| 20260831200502 | 60 | 256 | 1.7 | 7.8 | 0.00 | 0.00 | 0.00 | 84 | 1012.5 |
| 20260831200002 | 60 | 265 | 1.7 | 8.7 | 0.00 | 0.00 | 0.00 | 84 | 1012.5 |
| 20260831195502 | 59 | 255 | 2.6 | 10.4 | 0.00 | 0.00 | 0.00 | 84 | 1012.5 |
| 20260831195002 | 59 | 257 | 2.6 | 10.4 | 0.00 | 0.00 | 0.00 | 84 | 1012.5 |
| 20260831194502 | 59 | 256 | 2.6 | 8.7 | 0.00 | 0.00 | 0.00 | 84 | 1012.5 |
| 20260831194002 | 59 | 256 | 2.6 | 8.7 | 0.00 | 0.00 | 0.00 | 84 | 1012.5 |
| 20260831193502 | 59 | 256 | 2.6 | 8.7 | 0.00 | 0.00 | 0.00 | 84 | 1012.5 |
| 20260831193002 | 59 | 259 | 2.6 | 7.0 | 0.00 | 0.00 | 0.00 | 85 | 1012.5 |
| 20260831192502 | 59 | 256 | 2.6 | 9.6 | 0.00 | 0.00 | 0.00 | 85 | 1012.5 |
| 20260831192002 | 59 | 254 | 2.6 | 9.6 | 0.00 | 0.00 | 0.00 | 85 | 1012.5 |
| 20260831191523 | 58 | 250 | 2.6 | 7.8 | 0.00 | 0.00 | 0.00 | 85 | 1012.5 |
| 20260831191023 | 58 | 246 | 2.6 | 7.8 | 0.00 | 0.00 | 0.00 | 86 | 1012.5 |
| 20260831190503 | 58 | 249 | 2.6 | 9.6 | 0.00 | 0.00 | 0.00 | 86 | 1012.5 |
| 20260831190002 | 58 | 250 | 3.5 | 9.6 | 0.00 | 0.00 | 0.00 | 87 | 1012.5 |
| 20260831185502 | 58 | 250 | 3.5 | 8.7 | 0.00 | 0.00 | 0.00 | 87 | 1012.5 |
| 20260831185002 | 58 | 250 | 2.6 | 8.7 | 0.00 | 0.00 | 0.00 | 87 | 1012.5 |
| 20260831184502 | 58 | 247 | 2.6 | 7.0 | 0.00 | 0.00 | 0.00 | 88 | 1012.5 |
| 20260831184002 | 58 | 241 | 2.6 | 7.0 | 0.00 | 0.00 | 0.00 | 88 | 1012.5 |
| 20260831183523 | 58 | 244 | 1.7 | 7.0 | 0.00 | 0.00 | 0.00 | 88 | 1012.5 |
| 20260831183002 | 57 | 255 | 2.6 | 7.8 | 0.00 | 0.00 | 0.00 | 88 | 1012.5 |
| 20260831182502 | 57 | 249 | 3.5 | 7.8 | 0.00 | 0.00 | 0.00 | 88 | 1012.5 |
| 20260831182002 | 57 | 247 | 3.5 | 9.6 | 0.00 | 0.00 | 0.00 | 88 | 1012.5 |
| 20260831181502 | 57 | 248 | 3.5 | 9.6 | 0.00 | 0.00 | 0.00 | 87 | 1012.5 |
| 20260831181002 | 57 | 247 | 2.6 | 8.7 | 0.00 | 0.00 | 0.00 | 87 | 1012.5 |
| 20260831180523 | 57 | 244 | 2.6 | 8.7 | 0.00 | 0.00 | 0.00 | 87 | 1012.5 |
| 20260831180002 | 57 | 246 | 2.6 | 7.8 | 0.00 | 0.00 | 0.00 | 87 | 1012.5 |
| 20260831175502 | 57 | 243 | 1.7 | 7.8 | 0.00 | 0.00 | 0.00 | 87 | 1012.5 |
| 20260831175023 | 57 | 245 | 1.7 | 9.6 | 0.00 | 0.00 | 0.00 | 87 | 1012.5 |
| 20260831174502 | 57 | 252 | 1.7 | 9.6 | 0.00 | 0.00 | 0.00 | 87 | 1012.5 |
| 20260831174002 | 57 | 238 | 2.6 | 6.1 | 0.00 | 0.00 | 0.00 | 87 | 1012.5 |
| 20260831173502 | 57 | 229 | 1.7 | 6.1 | 0.00 | 0.00 | 0.00 | 87 | 1012.5 |
| 20260831173002 | 57 | 241 | 1.7 | 7.0 | 0.00 | 0.00 | 0.00 | 87 | 1012.5 |
| 20260831172502 | 57 | 250 | 2.6 | 8.7 | 0.00 | 0.00 | 0.00 | 87 | 1012.5 |
| 20260831172002 | 57 | 246 | 3.5 | 8.7 | 0.00 | 0.00 | 0.00 | 87 | 1012.5 |
| 20260831171523 | 57 | 238 | 2.6 | 7.8 | 0.00 | 0.00 | 0.00 | 87 | 1012.5 |
| 20260831171002 | 56 | 246 | 1.7 | 8.7 | 0.00 | 0.00 | 0.00 | 87 | 1012.5 |
| 20260831170502 | 56 | 248 | 1.7 | 8.7 | 0.00 | 0.00 | 0.00 | 87 | 1012.5 |
| 20260831170023 | 56 | 249 | 1.7 | 7.8 | 0.00 | 0.00 | 0.00 | 87 | 1012.5 |
| 20260831165502 | 56 | 251 | 2.6 | 7.8 | 0.00 | 0.00 | 0.00 | 88 | 1012.5 |
| 20260831165023 | 56 | 245 | 1.7 | 7.8 | 0.00 | 0.00 | 0.00 | 88 | 1012.5 |
| 20260831164502 | 56 | 243 | 1.7 | 7.8 | 0.00 | 0.00 | 0.00 | 88 | 1012.5 |
| 20260831164023 | 56 | 248 | 1.7 | 7.8 | 0.00 | 0.00 | 0.00 | 88 | 1012.5 |
| 20260831163502 | 56 | 245 | 1.7 | 7.0 | 0.00 | 0.00 | 0.00 | 89 | 1012.5 |
| 20260831163002 | 56 | 240 | 1.7 | 7.8 | 0.00 | 0.00 | 0.00 | 89 | 1012.5 |
| 20260831162503 | 56 | 241 | 1.7 | 7.8 | 0.00 | 0.00 | 0.00 | 89 | 1012.5 |
| 20260831162002 | 56 | 245 | 2.6 | 5.2 | 0.00 | 0.00 | 0.00 | 89 | 1012.5 |
| 20260831161502 | 56 | 254 | 2.6 | 7.8 | 0.00 | 0.00 | 0.00 | 89 | 1012.5 |
| 20260831161002 | 55 | 245 | 2.6 | 7.8 | 0.00 | 0.00 | 0.00 | 89 | 1012.5 |
| 20260831160502 | 55 | 235 | 1.7 | 7.0 | 0.00 | 0.00 | 0.00 | 89 | 1012.5 |
| 20260831160002 | 55 | 228 | 1.7 | 6.1 | 0.00 | 0.00 | 0.00 | 90 | 1012.5 |
| 20260831155502 | 55 | 228 | 1.7 | 6.1 | 0.00 | 0.00 | 0.00 | 90 | 1012.5 |
| 20260831155002 | 55 | 230 | 0.9 | 4.3 | 0.00 | 0.00 | 0.00 | 90 | 1012.5 |
| 20260831154502 | 55 | 231 | 0.9 | 4.3 | 0.00 | 0.00 | 0.00 | 90 | 1012.5 |
| 20260831154002 | 55 | 236 | 1.7 | 5.2 | 0.00 | 0.00 | 0.00 | 90 | 1012.5 |
| 20260831153523 | 55 | 230 | 1.7 | 5.2 | 0.00 | 0.00 | 0.00 | 90 | 1012.5 |
| 20260831153002 | 55 | 234 | 0.9 | 5.2 | 0.00 | 0.00 | 0.00 | 91 | 1012.5 |
| 20260831152523 | 55 | 239 | 0.9 | 5.2 | 0.00 | 0.00 | 0.00 | 91 | 1012.5 |
| 20260831152002 | 55 | 240 | 1.7 | 7.0 | 0.00 | 0.00 | 0.00 | 91 | 1012.5 |
| 20260831151524 | 55 | 251 | 1.7 | 7.0 | 0.00 | 0.00 | 0.00 | 91 | 1012.5 |
| 20260831151024 | 55 | 250 | 1.7 | 6.1 | 0.00 | 0.00 | 0.00 | 91 | 1012.5 |
| 20260831150502 | 55 | 246 | 2.6 | 7.8 | 0.00 | 0.00 | 0.00 | 91 | 1012.5 |
| 20260831150003 | 55 | 242 | 1.7 | 7.8 | 0.00 | 0.00 | 0.00 | 92 | 1012.5 |
| 20260831145502 | 55 | 239 | 1.7 | 6.1 | 0.00 | 0.00 | 0.00 | 92 | 1012.5 |
| 20260831145002 | 55 | 249 | 1.7 | 6.1 | 0.00 | 0.00 | 0.00 | 92 | 1012.5 |
| 20260831144502 | 54 | 247 | 1.7 | 6.1 | 0.00 | 0.00 | 0.00 | 92 | 1012.5 |
| 20260831144002 | 54 | 229 | 1.7 | 3.5 | 0.00 | 0.00 | 0.00 | 92 | 1012.5 |
| 20260831143523 | 54 | 223 | 1.7 | 6.1 | 0.00 | 0.00 | 0.00 | 92 | 1012.5 |
| 20260831143002 | 54 | 235 | 1.7 | 7.0 | 0.00 | 0.00 | 0.00 | 92 | 1012.5 |
| 20260831142502 | 54 | 239 | 1.7 | 6.1 | 0.00 | 0.00 | 0.00 | 92 | 1012.5 |
| 20260831142023 | 54 | 241 | 1.7 | 6.1 | 0.00 | 0.00 | 0.00 | 92 | 1012.5 |
| 20260831141502 | 54 | 243 | 1.7 | 4.3 | 0.00 | 0.00 | 0.00 | 92 | 1012.5 |
| 20260831141002 | 54 | 246 | 1.7 | 5.2 | 0.00 | 0.00 | 0.00 | 92 | 1012.5 |
| 20260831140502 | 54 | 252 | 1.7 | 5.2 | 0.00 | 0.00 | 0.00 | 92 | 1012.5 |
| 20260831140003 | 54 | 256 | 0.9 | 4.3 | 0.00 | 0.00 | 0.00 | 92 | 1012.5 |
| 20260831135523 | 54 | 254 | 1.7 | 4.3 | 0.00 | 0.00 | 0.00 | 93 | 1012.5 |
| 20260831135002 | 54 | 257 | 1.7 | 5.2 | 0.00 | 0.00 | 0.00 | 92 | 1012.5 |
| 20260831134502 | 54 | 254 | 1.7 | 5.2 | 0.00 | 0.00 | 0.00 | 92 | 1012.5 |
| 20260831134002 | 54 | 246 | 1.7 | 5.2 | 0.00 | 0.00 | 0.00 | 93 | 1012.5 |